STARLINK-32587 (62180 NORAD) Tracking and Keplerian Element Data

This shows tracking and keplerian element data for the satellite.

Feedback or suggestion? Click here.




ElementValue
Catalog62180
NameSTARLINK-32587
Epoch Orbit1017
Epoch Day35.17487425
Epoch Year2025
RAAN89.0811
Inclination69.9978
Eccentricity0.0003159
Argument of Perigee271.9769
Mean Anonmoly88.1028
Mean Motion14.99302532
Decay Rate-4.1E-07
L11 62180U 24225T 25035.17487425 -.00000041 00000+0 43480-5 0 9994
L22 62180 69.9978 89.0811 0003159 271.9769 88.1028 14.99302532 10177



Live tracking and technical data element details for STARLINK-32587 (NORAD 62180). STARLINK-32587 can be tracked NOW for your location showing map with azimuth and elevation plus other details from your city location.







IsCatalogInMostPopularTable: catalog: 62180, numindb: 18
Update: records affected: 1



GetName: 62180 STARLINK-32587

Hit Count: updated at: Sun, 18 May 2025 23:15:21 GMT